O3B FM16 (43232 NORAD) Tracking and Keplerian Element Data

This shows tracking and keplerian element data for the satellite.

Feedback or suggestion? Click here.




ElementValue
Catalog43232
NameO3B FM16
Epoch Orbit2042
Epoch Day111.76989513
Epoch Year2019
RAAN21.5522
Inclination0.0406
Eccentricity0.0003067
Argument of Perigee6.2452
Mean Anonmoly332.2181
Mean Motion5.00115997
Decay Rate-3E-07
L11 43232U 18024B 19111.76989513 -.00000030 00000-0 00000-0 0 9994
L22 43232 0.0406 21.5522 0003067 6.2452 332.2181 5.00115997 20423

Live tracking and technical data element details for O3B FM16 (NORAD 43232). O3B FM16 can be tracked NOW for your location showing map with azimuth and elevation plus other details from your city location.

Track the satellite on the map from your city or location and see movement details for azimuth, elevation, latitude, longitude, range, height, and movement on the map or in text.







IsCatalogInMostPopularTable: catalog: 43232, numindb: 160
Update: records affected: 1



GetName: 43232 O3B FM16

Hit Count: updated at: Tue, 23 Apr 2019 05:52:19 GMT